STARLINK-31914, 59902

Orbit data source: Space-Track

STARLINK-31914, 59902 is a payload satellite owned by SpaceX/Seattle (US) in LEO that was launched on Tue, 28 May 2024 UTC via an FALCON 9 launch vehicle from the Air Force Eastern Test Range (AFETR). Payload-class satellites include a variety of spacecraft equipped with specific instruments for various scientific and technological missions. These include communications satellites like Starlink; space stations such as the ISS; scientific satellites like the Hubble; Earth observation satellites from companies like Planet Labs, Umbra, and HawkEye 360; GPS; miniature CubeSats for education and research; and military/defense satellites.

Loading next visibility...
Identifier
59902, 2024-100T
Orbit
LEO
Country
Flag of USUS
Related business
Manufacturer
SpaceX/Seattle
Mission
Operational spacecraft
Bus & Motor
STARLINK V2M, Unknown motor
Mass
730 kg wet, ~700 kg dry
Launch date (UTC)
2024-05-28 (2 years ago)
Launch vehicle
FALCON 9
Launch site
Air Force Eastern Test Range (AFETR)
Object type
Payload
Rocket body
Debris
Shape & HBR
Unknown shape, 17.7 m
Radar Cross Section
Large (>1 m²)

Expand to show TLE details & history
Last TLE update: 12 hours ago

TLE from 12 hours ago
0 STARLINK-31914
1 59902U 24100T   26036.12389789  .00001851  00000-0  76747-4 0  9996
2 59902  43.0011 309.5452 0000783 277.6389  82.4374 15.27589986 96063
Epoch: 2026-02-05T02:58Z
TLE epoch observation values (Epoch: 2026-02-05T02:58:24.777Z)
Latitude
-0.00001°
Longitude
129.66132°
Altitude
482.724 km
Speed
7.626 km/s
True Right ascension
20h 38m 10s
True Declination
0° 00' 00"
Sunlit
Object was in daylight at epoch
Visualization orbit readout
Latitude
Unknown
Longitude
Unknown
Altitude
Unknown
Speed
Unknown
Apparent Right ascension
Unknown
Apparent Declination
Unknown
Sunlit
N/A
Visualization observer readout
Local Sidereal Time
17:13:34
Azimuth
Unknown
Elevation
Unknown
Doppler factor
Unknown
Orbital elements
Apogee altitude
485.502 km
Perigee altitude
484.427 km
Semi-major axis
6,863.101 km
Eccentricity
0.00008
Inclination
43.0011°
RAAN
309.5452°
Arg. of periapsis
277.6389°
True anomaly
82.44629°
Mean anomaly
82.4374°
Eccentric anomaly
82.44185°
Mean motion
3.81736 °/min
Orbital period
94.31 mins
BSTAR
0.000076747
Loading maneuver chart data...
Computing Atmospheric mass density...
Loading historical data...
Loading historical data...
Loading historical data...
Loading historical data...
Loading historical data...
Loading historical data...
Loading historical data...

Documentation

Showing up to 5 results
|